Location: *
(46.3500°N, 10.9000°E)
Time: 08:23:23
(UTC+00:00)

BREEZE-M DEB (TANK) - Pass Details

Date: 09 April 2020
Orbit: 317 x 11716 km, 49.7° (Epoch: 24 May)

Event Time Altitude Azimuth Distance (km) Brightness Sun altitude
Rises 19:36:55 0° 224° (SW) 4,508 8.1 -16.8°
Reaches altitude 10° 19:41:17 10° 216° (SW) 2,483 6.7 -17.5°
Enters shadow 19:44:47 27° 178° (S) 1,015 4.3 -18.0°
